Location: Baix
(44.7118°N, 4.7648°E)
Time: 08:30:50
(UTC+00:00)

A-11 Canister half - Pass Details

Date: 27 November 2020
Orbit: 1517 x 1683 km, 47.2° (Epoch: 22 January)

Event Time Altitude Azimuth Distance (km) Brightness Sun altitude
Rises 17:26:24 0° 293° (WNW) 4,925 12.5 -14.4°
Reaches altitude 10° 17:29:35 10° 290° (WNW) 3,944 12.0 -14.9°
Maximum altitude 17:39:33 63° 213° (SSW) 1,841 9.6 -16.7°
Drops below altitude 10° 17:49:25 10° 135° (SE) 3,907 10.8 -18.4°
Sets 17:52:34 0° 133° (SE) 4,877 11.3 -18.9°
